,,PA_Meas_PMT16A,,PR_Meas_QMR101_102,,RH_Meas_QMH101,,SR_Meas_QMS101,,TA_Meas_QMH101,,GenWind,,GenWind,
time,status,PA,status,PR,status,RH,status,SR,status,TA,status,DirAvg,status,SpdAvg,
2011-08-17, 00:00:04,VALID,918.127,VALID,0,VALID,97.3129,VALID,0,VALID,19.8978,VALID,7,VALID,0,
2011-08-17, 00:01:04,VALID,918.136,VALID,0,VALID,97.3053,VALID,0,VALID,19.8768,VALID,7,VALID,0.138672,
2011-08-17, 00:02:04,VALID,918.158,VALID,0,VALID,97.3053,VALID,0,VALID,19.8768,VALID,7,VALID,0.742969,
2011-08-17, 00:03:04,VALID,918.146,VALID,0,VALID,97.3281,VALID,0,VALID,19.8978,VALID,7,VALID,0.885156,
2011-08-17, 00:04:04,VALID,918.148,VALID,0,VALID,97.3358,VALID,0,VALID,19.8783,VALID,7,VALID,0.704297,
2011-08-17, 00:05:04,VALID,918.142,VALID,0,VALID,97.3129,VALID,0,VALID,19.8573,VALID,7,VALID,0.628125,
2011-08-17, 00:06:04,VALID,918.138,VALID,0,VALID,97.3129,VALID,0,VALID,19.8783,VALID,7,VALID,0.530078,
2011-08-17, 00:07:04,VALID,918.152,VALID,0,VALID,97.3053,VALID,0,VALID,19.8588,VALID,7,VALID,0.434766,
2011-08-17, 00:08:04,VALID,918.13,VALID,0,VALID,97.3205,VALID,0,VALID,19.8393,VALID,7,VALID,0.542969,
2011-08-17, 00:09:04,VALID,918.125,VALID,0,VALID,97.3205,VALID,0,VALID,19.8198,VALID,7,VALID,0.419531,
2011-08-17, 00:10:04,VALID,918.114,VALID,0,VALID,97.3586,VALID,0,VALID,19.8198,VALID,7,VALID,0.227734,
2011-08-17, 00:11:04,VALID,918.083,VALID,0,VALID,97.3205,VALID,0,VALID,19.7793,VALID,7,VALID,0,
2011-08-17, 00:12:04,VALID,918.068,VALID,0,VALID,97.3281,VALID,0,VALID,19.7598,VALID,7,VALID,0,
2011-08-17, 00:13:04,VALID,918.052,VALID,0,VALID,97.3358,VALID,0,VALID,19.7598,VALID,7,VALID,0,
2011-08-17, 00:14:04,VALID,918.027,VALID,0,VALID,97.3281,VALID,0,VALID,19.7613,VALID,7,VALID,0,
2011-08-17, 00:15:04,VALID,918.049,VALID,0,VALID,97.351,VALID,0,VALID,19.7808,VALID,7,VALID,0,
2011-08-17, 00:16:04,VALID,918.025,VALID,0,VALID,97.351,VALID,0,VALID,19.7613,VALID,7,VALID,0,
2011-08-17, 00:17:04,VALID,918.053,VALID,0,VALID,97.3358,VALID,0,VALID,19.7223,VALID,7,VALID,0.1125,
2011-08-17, 00:18:04,VALID,918.019,VALID,0,VALID,97.3434,VALID,0,VALID,19.6833,VALID,7,VALID,0.343359,
2011-08-17, 00:19:04,VALID,918.048,VALID,0,VALID,97.351,VALID,0,VALID,19.6443,VALID,7,VALID,0.416406,
2011-08-17, 00:20:04,VALID,918.068,VALID,0,VALID,97.3586,VALID,0,VALID,19.6233,VALID,7,VALID,0.535547,
2011-08-17, 00:21:04,VALID,918.024,VALID,0,VALID,97.3663,VALID,0,VALID,19.6233,VALID,7,VALID,0.565625,
2011-08-17, 00:22:04,VALID,918.045,VALID,0,VALID,97.3434,VALID,0,VALID,19.5858,VALID,7,VALID,0.535937,
2011-08-17, 00:23:04,VALID,918.058,VALID,0,VALID,97.3586,VALID,0,VALID,19.5858,VALID,7,VALID,0.593359,
2011-08-17, 00:24:04,VALID,918.035,VALID,0,VALID,97.3815,VALID,0,VALID,19.6053,VALID,7,VALID,0.676953,
2011-08-17, 00:25:04,VALID,918.028,VALID,0,VALID,97.3815,VALID,0,VALID,19.6233,VALID,7,VALID,0.447266,
2011-08-17, 00:26:04,VALID,918.034,VALID,0,VALID,97.3663,VALID,0,VALID,19.6443,VALID,7,VALID,0.40625,
2011-08-17, 00:27:04,VALID,918.033,VALID,0,VALID,97.412,VALID,0,VALID,19.6248,VALID,7,VALID,0.637109,
2011-08-17, 00:28:04,VALID,917.995,VALID,0,VALID,97.412,VALID,0,VALID,19.6233,VALID,7,VALID,0.462109,
2011-08-17, 00:29:04,VALID,918.005,VALID,0,VALID,97.3968,VALID,0,VALID,19.6443,VALID,7,VALID,0.601172,
2011-08-17, 00:30:04,VALID,917.96,VALID,0,VALID,97.412,VALID,0,VALID,19.6833,VALID,7,VALID,0.767969,
2011-08-17, 00:31:04,VALID,917.965,VALID,0,VALID,97.4273,VALID,0,VALID,19.7028,VALID,7,VALID,0.508594,
2011-08-17, 00:32:04,VALID,917.918,VALID,0,VALID,97.4425,VALID,0,VALID,19.7223,VALID,7,VALID,0.457031,
2011-08-17, 00:33:04,VALID,917.917,VALID,0,VALID,97.4577,VALID,0,VALID,19.7418,VALID,7,VALID,0.4625,
2011-08-17, 00:34:04,VALID,917.897,VALID,0,VALID,97.4577,VALID,0,VALID,19.8003,VALID,7,VALID,0.260547,
2011-08-17, 00:35:04,VALID,917.882,VALID,0,VALID,97.4501,VALID,0,VALID,19.7988,VALID,7,VALID,0.682031,
2011-08-17, 00:36:04,VALID,917.862,VALID,0,VALID,97.4577,VALID,0,VALID,19.8003,VALID,7,VALID,0.609766,
2011-08-17, 00:37:04,VALID,917.862,VALID,0,VALID,97.4501,VALID,0,VALID,19.7808,VALID,7,VALID,0.532812,
2011-08-17, 00:38:04,VALID,917.808,VALID,0,VALID,97.4273,VALID,0,VALID,19.7418,VALID,356,VALID,0.541016,
2011-08-17, 00:39:04,VALID,917.817,VALID,0,VALID,97.4349,VALID,0,VALID,19.7403,VALID,356,VALID,0.383594,
2011-08-17, 00:40:04,VALID,917.812,VALID,0,VALID,97.4349,VALID,0,VALID,19.7808,VALID,356,VALID,0.808984,
2011-08-17, 00:41:04,VALID,917.801,VALID,0,VALID,97.4425,VALID,0,VALID,19.8198,VALID,340,VALID,0.539063,
2011-08-17, 00:42:04,VALID,917.852,VALID,0,VALID,97.4654,VALID,0,VALID,19.8198,VALID,19,VALID,0.675,
2011-08-17, 00:43:04,VALID,917.85,VALID,0,VALID,97.4273,VALID,0,VALID,19.8183,VALID,19,VALID,0.348437,
2011-08-17, 00:44:04,VALID,917.885,VALID,0,VALID,97.4654,VALID,0,VALID,19.8393,VALID,19,VALID,0.443359,
2011-08-17, 00:45:04,VALID,917.87,VALID,0,VALID,97.4501,VALID,0,VALID,19.8783,VALID,19,VALID,0,
2011-08-17, 00:46:04,VALID,917.901,VALID,0,VALID,97.4577,VALID,0,VALID,19.8783,VALID,19,VALID,0.189453,
2011-08-17, 00:47:04,VALID,917.87,VALID,0,VALID,97.4425,VALID,0,VALID,19.8978,VALID,19,VALID,0,
2011-08-17, 00:48:04,VALID,917.901,VALID,0,VALID,97.4577,VALID,0,VALID,19.8978,VALID,19,VALID,0.0304688,
2011-08-17, 00:49:04,VALID,917.889,VALID,0,VALID,97.4425,VALID,0,VALID,19.8588,VALID,19,VALID,0.0078125,
2011-08-17, 00:50:04,VALID,917.901,VALID,0,VALID,97.4273,VALID,0,VALID,19.8003,VALID,19,VALID,0,
2011-08-17, 00:51:04,VALID,917.899,VALID,0,VALID,97.4273,VALID,0,VALID,19.8003,VALID,19,VALID,0,
2011-08-17, 00:52:04,VALID,917.887,VALID,0,VALID,97.4425,VALID,0,VALID,19.8003,VALID,19,VALID,0,
2011-08-17, 00:53:04,VALID,917.908,VALID,0,VALID,97.412,VALID,0,VALID,19.7223,VALID,19,VALID,0,
2011-08-17, 00:54:04,VALID,917.871,VALID,0,VALID,97.351,VALID,0,VALID,19.6248,VALID,19,VALID,0,
2011-08-17, 00:55:04,VALID,917.893,VALID,0,VALID,97.351,VALID,0,VALID,19.5468,VALID,19,VALID,0,
2011-08-17, 00:56:04,VALID,917.894,VALID,0,VALID,97.3739,VALID,0,VALID,19.5078,VALID,19,VALID,0,
2011-08-17, 00:57:04,VALID,917.907,VALID,0,VALID,97.3586,VALID,0,VALID,19.5468,VALID,19,VALID,0,
2011-08-17, 00:58:04,VALID,917.89,VALID,0,VALID,97.3586,VALID,0,VALID,19.5273,VALID,19,VALID,0,
2011-08-17, 00:59:04,VALID,917.876,VALID,0,VALID,97.3586,VALID,0,VALID,19.5468,VALID,19,VALID,0.0339844,
2011-08-17, 01:00:04,VALID,917.853,VALID,0,VALID,97.3891,VALID,0,VALID,19.5858,VALID,19,VALID,0.0191406,
2011-08-17, 01:01:04,VALID,917.875,VALID,0,VALID,97.4196,VALID,0,VALID,19.6053,VALID,19,VALID,0,
2011-08-17, 01:02:04,VALID,917.878,VALID,0,VALID,97.3891,VALID,0,VALID,19.6053,VALID,19,VALID,0,
2011-08-17, 01:03:04,VALID,917.888,VALID,0,VALID,97.4349,VALID,0,VALID,19.5858,VALID,19,VALID,0.0464844,
2011-08-17, 01:04:04,VALID,917.882,VALID,0,VALID,97.4196,VALID,0,VALID,19.5663,VALID,19,VALID,0.125391,
2011-08-17, 01:05:04,VALID,917.878,VALID,0,VALID,97.4273,VALID,0,VALID,19.6053,VALID,19,VALID,0,
2011-08-17, 01:06:04,VALID,917.886,VALID,0,VALID,97.4425,VALID,0,VALID,19.6248,VALID,19,VALID,0,
2011-08-17, 01:07:04,VALID,917.886,VALID,0,VALID,97.4349,VALID,0,VALID,19.6443,VALID,19,VALID,0,
2011-08-17, 01:08:04,VALID,917.882,VALID,0,VALID,97.4501,VALID,0,VALID,19.6443,VALID,19,VALID,0,
2011-08-17, 01:09:04,VALID,917.887,VALID,0,VALID,97.4577,VALID,0,VALID,19.6653,VALID,19,VALID,0,
2011-08-17, 01:10:04,VALID,917.892,VALID,0,VALID,97.4577,VALID,0,VALID,19.6443,VALID,19,VALID,0,
2011-08-17, 01:11:04,VALID,917.845,VALID,0,VALID,97.4501,VALID,0,VALID,19.6833,VALID,19,VALID,0,
2011-08-17, 01:12:04,VALID,917.85,VALID,0,VALID,97.473,VALID,0,VALID,19.6833,VALID,19,VALID,0,
2011-08-17, 01:13:04,VALID,917.804,VALID,0,VALID,97.473,VALID,0,VALID,19.7028,VALID,19,VALID,0,
2011-08-17, 01:14:04,VALID,917.808,VALID,0,VALID,97.4654,VALID,0,VALID,19.7028,VALID,19,VALID,0,
2011-08-17, 01:15:04,VALID,917.781,VALID,0,VALID,97.4577,VALID,0,VALID,19.6833,VALID,19,VALID,0,
2011-08-17, 01:16:04,VALID,917.78,VALID,0,VALID,97.4577,VALID,0,VALID,19.6443,VALID,19,VALID,0,
2011-08-17, 01:17:04,VALID,917.775,VALID,0,VALID,97.4501,VALID,0,VALID,19.6443,VALID,19,VALID,0,
2011-08-17, 01:18:04,VALID,917.742,VALID,0,VALID,97.4654,VALID,0,VALID,19.6443,VALID,19,VALID,0,
2011-08-17, 01:19:04,VALID,917.75,VALID,0,VALID,97.4425,VALID,0,VALID,19.6248,VALID,19,VALID,0,
2011-08-17, 01:20:04,VALID,917.727,VALID,0,VALID,97.4654,VALID,0,VALID,19.6458,VALID,19,VALID,0,
2011-08-17, 01:21:04,VALID,917.697,VALID,0,VALID,97.4577,VALID,0,VALID,19.6443,VALID,19,VALID,0,
2011-08-17, 01:22:04,VALID,917.725,VALID,0,VALID,97.4577,VALID,0,VALID,19.6443,VALID,19,VALID,0,
2011-08-17, 01:23:04,VALID,917.742,VALID,0,VALID,97.4654,VALID,0,VALID,19.6638,VALID,19,VALID,0,
2011-08-17, 01:24:04,VALID,917.707,VALID,0,VALID,97.4654,VALID,0,VALID,19.6848,VALID,19,VALID,0,
2011-08-17, 01:25:04,VALID,917.734,VALID,0,VALID,97.473,VALID,0,VALID,19.6443,VALID,19,VALID,0,
2011-08-17, 01:26:04,VALID,917.731,VALID,0,VALID,97.4501,VALID,0,VALID,19.5663,VALID,19,VALID,0.335547,
2011-08-17, 01:27:04,VALID,917.702,VALID,0,VALID,97.4349,VALID,0,VALID,19.5273,VALID,19,VALID,0.270312,
2011-08-17, 01:28:04,VALID,917.688,VALID,0,VALID,97.4501,VALID,0,VALID,19.4883,VALID,19,VALID,0.371875,
2011-08-17, 01:29:04,VALID,917.673,VALID,0,VALID,97.4425,VALID,0,VALID,19.5468,VALID,19,VALID,0.392578,
2011-08-17, 01:30:04,VALID,917.68,VALID,0,VALID,97.473,VALID,0,VALID,19.5663,VALID,19,VALID,0.586719,
2011-08-17, 01:31:04,VALID,917.66,VALID,0,VALID,97.4654,VALID,0,VALID,19.6248,VALID,19,VALID,0.5875,
2011-08-17, 01:32:04,VALID,917.611,VALID,0,VALID,97.4959,VALID,0,VALID,19.6638,VALID,19,VALID,0.596484,
2011-08-17, 01:33:04,VALID,917.612,VALID,0,VALID,97.4577,VALID,0,VALID,19.6833,VALID,19,VALID,0.700781,
2011-08-17, 01:34:04,VALID,917.59,VALID,0,VALID,97.5035,VALID,0,VALID,19.6833,VALID,19,VALID,0.902344,
2011-08-17, 01:35:04,VALID,917.58,VALID,0,VALID,97.5111,VALID,0,VALID,19.7223,VALID,14,VALID,1.39844,
2011-08-17, 01:36:04,VALID,917.516,VALID,0,VALID,97.4959,VALID,0,VALID,19.7418,VALID,17,VALID,1.96289,
2011-08-17, 01:37:04,VALID,917.524,VALID,0,VALID,97.4959,VALID,0,VALID,19.7208,VALID,19,VALID,1.09063,
2011-08-17, 01:38:04,VALID,917.505,VALID,0,VALID,97.4882,VALID,0,VALID,19.7223,VALID,19,VALID,1.48711,
2011-08-17, 01:39:04,VALID,917.484,VALID,0,VALID,97.4959,VALID,0,VALID,19.7223,VALID,19,VALID,0.999219,
2011-08-17, 01:40:04,VALID,917.502,VALID,0,VALID,97.5035,VALID,0,VALID,19.7223,VALID,19,VALID,0.705469,
2011-08-17, 01:41:04,VALID,917.499,VALID,0,VALID,97.5111,VALID,0,VALID,19.7223,VALID,17,VALID,0.991406,
2011-08-17, 01:42:04,VALID,917.512,VALID,0,VALID,97.4959,VALID,0,VALID,19.7613,VALID,354,VALID,1.02734,
2011-08-17, 01:43:04,VALID,917.536,VALID,0,VALID,97.5111,VALID,0,VALID,19.7808,VALID,355,VALID,0.824219,
2011-08-17, 01:44:04,VALID,917.559,VALID,0,VALID,97.5035,VALID,0,VALID,19.7808,VALID,355,VALID,1.06758,
2011-08-17, 01:45:04,VALID,917.543,VALID,0,VALID,97.4882,VALID,0,VALID,19.7808,VALID,13,VALID,1.35312,
2011-08-17, 01:46:04,VALID,917.536,VALID,0,VALID,97.5187,VALID,0,VALID,19.7808,VALID,13,VALID,0.667969,
2011-08-17, 01:47:04,VALID,917.525,VALID,0,VALID,97.5035,VALID,0,VALID,19.7808,VALID,13,VALID,0.8125,
2011-08-17, 01:48:04,VALID,917.513,VALID,0,VALID,97.534,VALID,0,VALID,19.8003,VALID,13,VALID,0.843359,
2011-08-17, 01:49:04,VALID,917.496,VALID,0,VALID,97.5111,VALID,0,VALID,19.8003,VALID,14,VALID,1.10586,
2011-08-17, 01:50:04,VALID,917.499,VALID,0,VALID,97.5187,VALID,0,VALID,19.8003,VALID,13,VALID,0.641016,
2011-08-17, 01:51:04,VALID,917.489,VALID,0,VALID,97.5111,VALID,0,VALID,19.8003,VALID,13,VALID,0.621094,
2011-08-17, 01:52:04,VALID,917.464,VALID,0,VALID,97.5111,VALID,0,VALID,19.8003,VALID,13,VALID,0.735547,
2011-08-17, 01:53:04,VALID,917.467,VALID,0,VALID,97.5187,VALID,0,VALID,19.8003,VALID,14,VALID,0.942578,
2011-08-17, 01:54:04,VALID,917.458,VALID,0,VALID,97.5187,VALID,0,VALID,19.8003,VALID,13,VALID,1.14258,
2011-08-17, 01:55:04,VALID,917.466,VALID,0,VALID,97.5035,VALID,0,VALID,19.8003,VALID,13,VALID,0.833594,
2011-08-17, 01:56:04,VALID,917.466,VALID,0,VALID,97.5264,VALID,0,VALID,19.8198,VALID,13,VALID,0.791406,
2011-08-17, 01:57:04,VALID,917.42,VALID,0,VALID,97.5111,VALID,0,VALID,19.8003,VALID,13,VALID,0.757422,
2011-08-17, 01:58:04,VALID,917.42,VALID,0,VALID,97.5187,VALID,0,VALID,19.7808,VALID,13,VALID,0.704687,
2011-08-17, 01:59:04,VALID,917.385,VALID,0,VALID,97.5111,VALID,0,VALID,19.7613,VALID,13,VALID,1.12344,
2011-08-17, 02:00:04,VALID,917.334,VALID,0,VALID,97.5264,VALID,0,VALID,19.7418,VALID,13,VALID,1.25195,
2011-08-17, 02:01:04,VALID,917.34,VALID,0,VALID,97.5111,VALID,0,VALID,19.7628,VALID,13,VALID,1.01172,
2011-08-17, 02:02:04,VALID,917.295,VALID,0,VALID,97.5111,VALID,0,VALID,19.7223,VALID,13,VALID,0.658594,
2011-08-17, 02:03:04,VALID,917.3,VALID,0,VALID,97.5187,VALID,0,VALID,19.7223,VALID,13,VALID,1.03008,
2011-08-17, 02:04:04,VALID,917.292,VALID,0,VALID,97.534,VALID,0,VALID,19.7028,VALID,13,VALID,1.02578,
2011-08-17, 02:05:04,VALID,917.274,VALID,0,VALID,97.5264,VALID,0,VALID,19.6848,VALID,13,VALID,1.09648,
2011-08-17, 02:06:04,VALID,917.263,VALID,0,VALID,97.5187,VALID,0,VALID,19.6443,VALID,14,VALID,0.68125,
2011-08-17, 02:07:04,VALID,917.237,VALID,0,VALID,97.534,VALID,0,VALID,19.6443,VALID,13,VALID,0.988281,
2011-08-17, 02:08:04,VALID,917.257,VALID,0,VALID,97.5264,VALID,0,VALID,19.6248,VALID,13,VALID,0.386719,
2011-08-17, 02:09:04,VALID,917.246,VALID,0,VALID,97.5264,VALID,0,VALID,19.6248,VALID,13,VALID,0.894531,
2011-08-17, 02:10:04,VALID,917.25,VALID,0,VALID,97.5416,VALID,0,VALID,19.5858,VALID,13,VALID,0.661328,
2011-08-17, 02:11:04,VALID,917.215,VALID,0,VALID,97.534,VALID,0,VALID,19.5858,VALID,13,VALID,0.908594,
2011-08-17, 02:12:04,VALID,917.204,VALID,0,VALID,97.5492,VALID,0,VALID,19.5858,VALID,13,VALID,0.787891,
2011-08-17, 02:13:04,VALID,917.209,VALID,0,VALID,97.534,VALID,0,VALID,19.5663,VALID,12,VALID,0.916797,
2011-08-17, 02:14:04,VALID,917.188,VALID,0,VALID,97.5264,VALID,0,VALID,19.6053,VALID,12,VALID,0.797656,
2011-08-17, 02:15:04,VALID,917.173,VALID,0,VALID,97.534,VALID,0,VALID,19.6038,VALID,352,VALID,0.786719,
2011-08-17, 02:16:04,VALID,917.143,VALID,0,VALID,97.5492,VALID,0,VALID,19.6248,VALID,352,VALID,0.604297,
2011-08-17, 02:17:04,VALID,917.118,VALID,0,VALID,97.534,VALID,0,VALID,19.6248,VALID,352,VALID,0.736328,
2011-08-17, 02:18:04,VALID,917.1,VALID,0,VALID,97.5492,VALID,0,VALID,19.6053,VALID,352,VALID,0.509375,
2011-08-17, 02:19:04,VALID,917.098,VALID,0,VALID,97.5645,VALID,0,VALID,19.6053,VALID,352,VALID,0.468359,
2011-08-17, 02:20:04,VALID,917.095,VALID,0,VALID,97.534,VALID,0,VALID,19.6428,VALID,352,VALID,0.203125,
2011-08-17, 02:21:04,VALID,917.106,VALID,0,VALID,97.5492,VALID,0,VALID,19.6443,VALID,352,VALID,0.334766,
2011-08-17, 02:22:04,VALID,917.093,VALID,0,VALID,97.5492,VALID,0,VALID,19.6653,VALID,352,VALID,0.280859,
2011-08-17, 02:23:04,VALID,917.104,VALID,0,VALID,97.5416,VALID,0,VALID,19.6638,VALID,352,VALID,0.562891,
2011-08-17, 02:24:04,VALID,917.072,VALID,0,VALID,97.5569,VALID,0,VALID,19.6638,VALID,352,VALID,0.0484375,
2011-08-17, 02:25:04,VALID,917.069,VALID,0,VALID,97.5569,VALID,0,VALID,19.6833,VALID,352,VALID,0.408203,
2011-08-17, 02:26:04,VALID,917.039,VALID,0,VALID,97.5492,VALID,0,VALID,19.6638,VALID,352,VALID,0.444922,
2011-08-17, 02:27:04,VALID,917.033,VALID,0,VALID,97.5645,VALID,0,VALID,19.6638,VALID,352,VALID,0.341406,
2011-08-17, 02:28:04,VALID,917.051,VALID,0,VALID,97.5416,VALID,0,VALID,19.6443,VALID,352,VALID,0.526563,
2011-08-17, 02:29:04,VALID,917.013,VALID,0,VALID,97.5492,VALID,0,VALID,19.6443,VALID,352,VALID,0.238672,
2011-08-17, 02:30:04,VALID,917.003,VALID,0,VALID,97.5645,VALID,0,VALID,19.6443,VALID,352,VALID,0.308984,
2011-08-17, 02:31:04,VALID,916.98,VALID,0,VALID,97.5569,VALID,0,VALID,19.6443,VALID,352,VALID,0.207813,
2011-08-17, 02:32:04,VALID,916.978,VALID,0,VALID,97.5569,VALID,0,VALID,19.6443,VALID,352,VALID,0.13125,
2011-08-17, 02:33:04,VALID,916.962,VALID,0,VALID,97.5721,VALID,0,VALID,19.6443,VALID,352,VALID,0,
2011-08-17, 02:34:04,VALID,916.925,VALID,0,VALID,97.5645,VALID,0,VALID,19.6248,VALID,352,VALID,0.00429688,
2011-08-17, 02:35:04,VALID,916.902,VALID,0,VALID,97.5645,VALID,0,VALID,19.6053,VALID,352,VALID,0,
2011-08-17, 02:36:04,VALID,916.918,VALID,0,VALID,97.5492,VALID,0,VALID,19.6248,VALID,352,VALID,0,
2011-08-17, 02:37:04,VALID,916.878,VALID,0,VALID,97.5645,VALID,0,VALID,19.6053,VALID,352,VALID,0,
2011-08-17, 02:38:04,VALID,916.841,VALID,0,VALID,97.5492,VALID,0,VALID,19.5468,VALID,352,VALID,0.403125,
2011-08-17, 02:39:04,VALID,916.812,VALID,0,VALID,97.5416,VALID,0,VALID,19.5273,VALID,352,VALID,0.309766,
2011-08-17, 02:40:04,VALID,916.797,VALID,0,VALID,97.5569,VALID,0,VALID,19.5078,VALID,352,VALID,0.372266,
2011-08-17, 02:41:04,VALID,916.741,VALID,0,VALID,97.5492,VALID,0,VALID,19.5078,VALID,352,VALID,0.53125,
2011-08-17, 02:42:04,VALID,916.725,VALID,0,VALID,97.5416,VALID,0,VALID,19.4883,VALID,352,VALID,0.872656,
2011-08-17, 02:43:04,VALID,916.684,VALID,0,VALID,97.5569,VALID,0,VALID,19.4493,VALID,352,VALID,0.775,
2011-08-17, 02:44:04,VALID,916.674,VALID,0,VALID,97.5187,VALID,0,VALID,19.4478,VALID,352,VALID,0.796094,
2011-08-17, 02:45:04,VALID,916.708,VALID,0,VALID,97.534,VALID,0,VALID,19.4298,VALID,352,VALID,0.646094,
2011-08-17, 02:46:04,VALID,916.662,VALID,0,VALID,97.5492,VALID,0,VALID,19.4103,VALID,352,VALID,0.365234,
2011-08-17, 02:47:04,VALID,916.69,VALID,0,VALID,97.534,VALID,0,VALID,19.3908,VALID,352,VALID,0.832812,
2011-08-17, 02:48:04,VALID,916.694,VALID,0,VALID,97.5111,VALID,0,VALID,19.3713,VALID,352,VALID,0.928516,
2011-08-17, 02:49:04,VALID,916.707,VALID,0,VALID,97.4959,VALID,0,VALID,19.3308,VALID,352,VALID,0.698828,
2011-08-17, 02:50:04,VALID,916.728,VALID,0,VALID,97.5264,VALID,0,VALID,19.3323,VALID,352,VALID,0.449219,
2011-08-17, 02:51:04,VALID,916.732,VALID,0,VALID,97.5035,VALID,0,VALID,19.3518,VALID,352,VALID,0.770312,
2011-08-17, 02:52:04,VALID,916.727,VALID,0,VALID,97.5187,VALID,0,VALID,19.3908,VALID,352,VALID,0.695313,
2011-08-17, 02:53:04,VALID,916.731,VALID,0,VALID,97.5111,VALID,0,VALID,19.4103,VALID,352,VALID,0.298047,
2011-08-17, 02:54:04,VALID,916.715,VALID,0,VALID,97.5035,VALID,0,VALID,19.4103,VALID,352,VALID,0.38125,
2011-08-17, 02:55:04,VALID,916.707,VALID,0,VALID,97.5035,VALID,0,VALID,19.4103,VALID,352,VALID,0.525781,
2011-08-17, 02:56:04,VALID,916.7,VALID,0,VALID,97.4882,VALID,0,VALID,19.4103,VALID,352,VALID,0.348828,
2011-08-17, 02:57:04,VALID,916.709,VALID,0,VALID,97.4882,VALID,0,VALID,19.4103,VALID,352,VALID,0.0191406,
2011-08-17, 02:58:04,VALID,916.694,VALID,0,VALID,97.5035,VALID,0,VALID,19.4103,VALID,352,VALID,0,
2011-08-17, 02:59:04,VALID,916.714,VALID,0,VALID,97.4806,VALID,0,VALID,19.4298,VALID,352,VALID,0,
2011-08-17, 03:00:04,VALID,916.713,VALID,0,VALID,97.5187,VALID,0,VALID,19.4298,VALID,352,VALID,0.0671875,
2011-08-17, 03:01:04,VALID,916.738,VALID,0,VALID,97.5035,VALID,0,VALID,19.4508,VALID,352,VALID,0.257813,
2011-08-17, 03:02:04,VALID,916.751,VALID,0,VALID,97.4882,VALID,0,VALID,19.4103,VALID,352,VALID,0.325781,
2011-08-17, 03:03:04,VALID,916.739,VALID,0,VALID,97.4959,VALID,0,VALID,19.4103,VALID,352,VALID,0.364062,
2011-08-17, 03:04:04,VALID,916.738,VALID,0,VALID,97.4806,VALID,0,VALID,19.3713,VALID,352,VALID,0.680078,
2011-08-17, 03:05:04,VALID,916.749,VALID,0,VALID,97.5111,VALID,0,VALID,19.3923,VALID,352,VALID,0.485547,
2011-08-17, 03:06:04,VALID,916.716,VALID,0,VALID,97.5111,VALID,0,VALID,19.3908,VALID,352,VALID,0.453516,
2011-08-17, 03:07:04,VALID,916.712,VALID,0,VALID,97.4882,VALID,0,VALID,19.3518,VALID,352,VALID,0.454297,
2011-08-17, 03:08:04,VALID,916.756,VALID,0,VALID,97.5035,VALID,0,VALID,19.3713,VALID,352,VALID,0.415625,
2011-08-17, 03:09:04,VALID,916.717,VALID,0,VALID,97.4882,VALID,0,VALID,19.4103,VALID,352,VALID,0.332031,
2011-08-17, 03:10:04,VALID,916.739,VALID,0,VALID,97.4882,VALID,0,VALID,19.4118,VALID,352,VALID,0.318359,
2011-08-17, 03:11:04,VALID,916.765,VALID,0,VALID,97.4959,VALID,0,VALID,19.4103,VALID,352,VALID,0.107813,
2011-08-17, 03:12:04,VALID,916.73,VALID,0,VALID,97.4959,VALID,0,VALID,19.4298,VALID,352,VALID,0.367969,
2011-08-17, 03:13:04,VALID,916.726,VALID,0,VALID,97.4882,VALID,0,VALID,19.4298,VALID,352,VALID,0.580078,
2011-08-17, 03:14:04,VALID,916.705,VALID,0,VALID,97.5187,VALID,0,VALID,19.4493,VALID,352,VALID,0.472656,
2011-08-17, 03:15:04,VALID,916.72,VALID,0,VALID,97.5111,VALID,0,VALID,19.4688,VALID,352,VALID,0.451172,
2011-08-17, 03:16:04,VALID,916.723,VALID,0,VALID,97.5035,VALID,0,VALID,19.4883,VALID,352,VALID,0.306641,
2011-08-17, 03:17:04,VALID,916.677,VALID,0,VALID,97.5187,VALID,0,VALID,19.5078,VALID,352,VALID,0.128125,
2011-08-17, 03:18:04,VALID,916.646,VALID,0,VALID,97.534,VALID,0,VALID,19.5468,VALID,352,VALID,0.332031,
2011-08-17, 03:19:04,VALID,916.655,VALID,0,VALID,97.534,VALID,0,VALID,19.5678,VALID,352,VALID,0.103906,
2011-08-17, 03:20:04,VALID,916.628,VALID,0,VALID,97.534,VALID,0,VALID,19.5858,VALID,352,VALID,0,
2011-08-17, 03:21:04,VALID,916.616,VALID,0,VALID,97.5264,VALID,0,VALID,19.5858,VALID,352,VALID,0,
2011-08-17, 03:22:04,VALID,916.605,VALID,0,VALID,97.534,VALID,0,VALID,19.5468,VALID,352,VALID,0.0191406,
2011-08-17, 03:23:04,VALID,916.609,VALID,0,VALID,97.5264,VALID,0,VALID,19.5273,VALID,352,VALID,0.287109,
2011-08-17, 03:24:04,VALID,916.564,VALID,0,VALID,97.5187,VALID,0,VALID,19.5273,VALID,352,VALID,0.370313,
2011-08-17, 03:25:04,VALID,916.535,VALID,0,VALID,97.5187,VALID,0,VALID,19.5273,VALID,352,VALID,0.723828,
2011-08-17, 03:26:04,VALID,916.544,VALID,0,VALID,97.5111,VALID,0,VALID,19.5453,VALID,352,VALID,0.549219,
2011-08-17, 03:27:04,VALID,916.489,VALID,0,VALID,97.5035,VALID,0,VALID,19.5858,VALID,353,VALID,0.303906,
2011-08-17, 03:28:04,VALID,916.521,VALID,0,VALID,97.4959,VALID,0,VALID,19.5858,VALID,352,VALID,0.345313,
2011-08-17, 03:29:04,VALID,916.492,VALID,0,VALID,97.4959,VALID,0,VALID,19.5663,VALID,352,VALID,0.366016,
2011-08-17, 03:30:04,VALID,916.489,VALID,0,VALID,97.4959,VALID,0,VALID,19.5663,VALID,352,VALID,0.319141,
2011-08-17, 03:31:04,VALID,916.442,VALID,0,VALID,97.4959,VALID,0,VALID,19.5663,VALID,352,VALID,0.367578,
2011-08-17, 03:32:04,VALID,916.438,VALID,0,VALID,97.4959,VALID,0,VALID,19.5663,VALID,352,VALID,0.369922,
2011-08-17, 03:33:04,VALID,916.441,VALID,0,VALID,97.4882,VALID,0,VALID,19.5858,VALID,352,VALID,0.266797,
2011-08-17, 03:34:04,VALID,916.43,VALID,0,VALID,97.4959,VALID,0,VALID,19.6053,VALID,352,VALID,0,
2011-08-17, 03:35:04,VALID,916.457,VALID,0,VALID,97.473,VALID,0,VALID,19.6038,VALID,352,VALID,0,
2011-08-17, 03:36:04,VALID,916.47,VALID,0,VALID,97.473,VALID,0,VALID,19.6248,VALID,352,VALID,0,
2011-08-17, 03:37:04,VALID,916.495,VALID,0,VALID,97.4654,VALID,0,VALID,19.6443,VALID,352,VALID,0,
2011-08-17, 03:38:04,VALID,916.504,VALID,0,VALID,97.4806,VALID,0,VALID,19.6443,VALID,352,VALID,0,
2011-08-17, 03:39:04,VALID,916.517,VALID,0,VALID,97.4654,VALID,0,VALID,19.6443,VALID,352,VALID,0,
2011-08-17, 03:40:04,VALID,916.517,VALID,0,VALID,97.4806,VALID,0,VALID,19.6443,VALID,352,VALID,0.332031,
2011-08-17, 03:41:04,VALID,916.528,VALID,0,VALID,97.4806,VALID,0,VALID,19.6443,VALID,352,VALID,0.423828,
2011-08-17, 03:42:04,VALID,916.513,VALID,0,VALID,97.4654,VALID,0,VALID,19.6833,VALID,352,VALID,0.440625,
2011-08-17, 03:43:04,VALID,916.502,VALID,0,VALID,97.4654,VALID,0,VALID,19.6638,VALID,352,VALID,0.323047,
2011-08-17, 03:44:04,VALID,916.544,VALID,0,VALID,97.4577,VALID,0,VALID,19.6833,VALID,352,VALID,0.335547,
2011-08-17, 03:45:04,VALID,916.547,VALID,0,VALID,97.473,VALID,0,VALID,19.6833,VALID,352,VALID,0.160547,
2011-08-17, 03:46:04,VALID,916.545,VALID,0,VALID,97.473,VALID,0,VALID,19.7028,VALID,352,VALID,0.250391,
2011-08-17, 03:47:04,VALID,916.531,VALID,0,VALID,97.4806,VALID,0,VALID,19.6833,VALID,352,VALID,0,
2011-08-17, 03:48:04,VALID,916.513,VALID,0,VALID,97.473,VALID,0,VALID,19.7028,VALID,352,VALID,0,
2011-08-17, 03:49:04,VALID,916.502,VALID,0,VALID,97.4577,VALID,0,VALID,19.7028,VALID,352,VALID,0.332422,